| time (UTC) | temp F | wind direction | speed MPH | gust MPH | rain 1hr in | rain 24hr in | rain mn in | humidity % | barometer mb |
| 20260505014103 | 57 | 210 | 3.0 | 6.0 | 0.00 | 0.00 | 0.00 | 56 | 1013.2 |
| 20260505013106 | 57 | 225 | 3.0 | 8.0 | 0.00 | 0.00 | 0.00 | 54 | 1013.2 |
| 20260505012104 | 58 | 145 | 1.0 | 6.0 | 0.00 | 0.00 | 0.00 | 54 | 1013.2 |
| 20260505010104 | 59 | 161 | 3.0 | 7.0 | 0.00 | 0.00 | 0.00 | 52 | 1012.8 |
| 20260505005104 | 59 | 165 | 3.0 | 7.0 | 0.00 | 0.00 | 0.00 | 51 | 1012.7 |
| 20260505004103 | 60 | 166 | 2.0 | 6.0 | 0.00 | 0.00 | 0.00 | 49 | 1012.5 |
| 20260505003105 | 60 | 223 | 3.0 | 8.0 | 0.00 | 0.00 | 0.00 | 47 | 1012.5 |
| 20260505002105 | 61 | 180 | 3.0 | 12.0 | 0.00 | 0.00 | 0.00 | 46 | 1012.2 |
| 20260505001105 | 61 | 205 | 6.0 | 15.0 | 0.00 | 0.00 | 0.00 | 45 | 1011.8 |
| 20260505000104 | 62 | 222 | 5.0 | 15.0 | 0.00 | 0.00 | 0.00 | 45 | 1011.8 |
| 20260504235104 | 62 | 213 | 2.0 | 9.0 | 0.00 | 0.00 | 0.00 | 45 | 1011.8 |
| 20260504234104 | 62 | 180 | 5.0 | 8.0 | 0.00 | 0.00 | 0.00 | 44 | 1011.8 |
| 20260504233103 | 63 | 209 | 4.0 | 12.0 | 0.00 | 0.00 | 0.00 | 43 | 1011.8 |
| 20260504232104 | 64 | 187 | 5.0 | 12.0 | 0.00 | 0.00 | 0.00 | 42 | 1011.8 |
| 20260504231104 | 64 | 215 | 3.0 | 10.0 | 0.00 | 0.00 | 0.00 | 41 | 1011.7 |
| 20260504230104 | 65 | 176 | 5.0 | 9.0 | 0.00 | 0.00 | 0.00 | 41 | 1011.5 |
| 20260504225104 | 66 | 99 | 5.0 | 17.0 | 0.00 | 0.00 | 0.00 | 39 | 1011.5 |
| 20260504224105 | 66 | 209 | 8.0 | 15.0 | 0.00 | 0.00 | 0.00 | 38 | 1011.5 |
| 20260504223103 | 68 | 214 | 7.0 | 9.0 | 0.00 | 0.00 | 0.00 | 37 | 1011.5 |
| 20260504222104 | 68 | 199 | 10.0 | 20.0 | 0.00 | 0.00 | 0.00 | 35 | 1011.5 |
| 20260504221104 | 69 | 160 | 6.0 | 17.0 | 0.00 | 0.00 | 0.00 | 34 | 1011.5 |
| 20260504215104 | 69 | 119 | 6.0 | 12.0 | 0.00 | 0.00 | 0.00 | 33 | 1011.5 |
| 20260504214105 | 70 | 155 | 7.0 | 10.0 | 0.00 | 0.00 | 0.00 | 33 | 1011.8 |
| 20260504213106 | 71 | 173 | 7.0 | 12.0 | 0.00 | 0.00 | 0.00 | 30 | 1011.5 |
| 20260504212103 | 72 | 237 | 7.0 | 12.0 | 0.00 | 0.00 | 0.00 | 28 | 1011.5 |
| 20260504211105 | 72 | 202 | 3.0 | 12.0 | 0.00 | 0.00 | 0.00 | 27 | 1011.5 |
| 20260504205105 | 73 | 204 | 2.0 | 8.0 | 0.00 | 0.00 | 0.00 | 28 | 1011.1 |
| 20260504202103 | 73 | 247 | 5.0 | 12.0 | 0.00 | 0.00 | 0.00 | 26 | 1011.3 |
| 20260504201104 | 73 | 209 | 5.0 | 14.0 | 0.00 | 0.00 | 0.00 | 27 | 1011.5 |
| 20260504195105 | 73 | 204 | 5.0 | 16.0 | 0.00 | 0.00 | 0.00 | 25 | 1011.3 |
| 20260504193106 | 72 | 178 | 4.0 | 15.0 | 0.00 | 0.00 | 0.00 | 26 | 1011.3 |
| 20260504192103 | 71 | 200 | 8.0 | 14.0 | 0.00 | 0.00 | 0.00 | 26 | 1011.1 |
| 20260504191106 | 71 | 211 | 6.0 | 10.0 | 0.00 | 0.00 | 0.00 | 27 | 1011.5 |
| 20260504185104 | 71 | 222 | 7.0 | 20.0 | 0.00 | 0.00 | 0.00 | 26 | 1011.5 |
| 20260504184106 | 71 | 203 | 6.0 | 20.0 | 0.00 | 0.00 | 0.00 | 26 | 1011.5 |
| 20260504183105 | 70 | 178 | 6.0 | 22.0 | 0.00 | 0.00 | 0.00 | 26 | 1011.5 |
| 20260504182105 | 70 | 211 | 10.0 | 16.0 | 0.00 | 0.00 | 0.00 | 27 | 1011.6 |
| 20260504180104 | 71 | 265 | 9.0 | 14.0 | 0.00 | 0.00 | 0.00 | 25 | 1011.8 |
| 20260504175105 | 70 | 250 | 6.0 | 18.0 | 0.00 | 0.00 | 0.00 | 27 | 1011.8 |
| 20260504174104 | 70 | 237 | 9.0 | 23.0 | 0.00 | 0.00 | 0.00 | 27 | 1011.8 |
| 20260504173104 | 70 | 253 | 10.0 | 18.0 | 0.00 | 0.00 | 0.00 | 26 | 1011.6 |
| 20260504172104 | 69 | 262 | 7.0 | 15.0 | 0.00 | 0.00 | 0.00 | 28 | 1011.8 |
| 20260504170104 | 68 | 167 | 9.0 | 16.0 | 0.00 | 0.00 | 0.00 | 27 | 1011.8 |
| 20260504160106 | 67 | 242 | 11.0 | 25.0 | 0.00 | 0.00 | 0.00 | 28 | 1012.5 |
| 20260504151105 | 67 | 264 | 7.0 | 15.0 | 0.00 | 0.00 | 0.00 | 31 | 1013.2 |
| 20260504150104 | 66 | 165 | 6.0 | 12.0 | 0.00 | 0.00 | 0.00 | 32 | 1013.2 |
| 20260504141104 | 65 | 257 | 5.0 | 12.0 | 0.00 | 0.01 | 0.00 | 35 | 1013.2 |
| 20260504140104 | 64 | 257 | 6.0 | 12.0 | 0.00 | 0.02 | 0.00 | 34 | 1013.2 |
| 20260504130104 | 59 | 264 | 4.0 | 9.0 | 0.00 | 0.03 | 0.00 | 42 | 1013.2 |
| 20260504120103 | 52 | 258 | 4.0 | 8.0 | 0.00 | 0.03 | 0.00 | 50 | 1012.8 |
| 20260504110104 | 48 | 268 | 1.0 | 8.0 | 0.00 | 0.03 | 0.00 | 54 | 1012.2 |
| 20260504100104 | 47 | 194 | 2.0 | 8.0 | 0.00 | 0.03 | 0.00 | 55 | 1011.8 |
| 20260504090104 | 45 | 292 | 2.0 | 7.0 | 0.00 | 0.03 | 0.00 | 56 | 1011.5 |
| 20260504081106 | 44 | 181 | 0.0 | 2.0 | 0.00 | 0.03 | 0.00 | 57 | 1011.5 |
| 20260504080104 | 44 | 202 | 0.0 | 1.0 | 0.00 | 0.03 | 0.00 | 60 | 1011.5 |
| 20260504070104 | 44 | 270 | 0.0 | 0.0 | 0.00 | 0.03 | 0.00 | 64 | 1011.1 |
| 20260504050105 | 43 | 270 | 2.0 | 2.0 | 0.00 | 0.03 | 0.00 | 57 | 1011.1 |
| 20260504045104 | 42 | 284 | 1.0 | 2.0 | 0.00 | 0.03 | 0.00 | 60 | 1011.1 |
| 20260504044104 | 42 | 293 | 3.0 | 6.0 | 0.00 | 0.03 | 0.00 | 60 | 1011.1 |
| 20260504042103 | 41 | 228 | 1.0 | 2.0 | 0.00 | 0.03 | 0.00 | 59 | 1010.8 |
| 20260504041106 | 41 | 292 | 1.0 | 2.0 | 0.00 | 0.03 | 0.00 | 61 | 1010.8 |
| 20260504040105 | 41 | 315 | 0.0 | 2.0 | 0.00 | 0.03 | 0.00 | 61 | 1010.5 |
| 20260504034104 | 40 | 284 | 2.0 | 2.0 | 0.00 | 0.03 | 0.03 | 63 | 1010.5 |
| 20260504033106 | 39 | 270 | 2.0 | 2.0 | 0.00 | 0.03 | 0.03 | 65 | 1010.5 |
| 20260504031105 | 37 | 292 | 0.0 | 2.0 | 0.00 | 0.03 | 0.03 | 75 | 1010.1 |
| 20260504030103 | 36 | 292 | 0.0 | 0.0 | 0.00 | 0.03 | 0.03 | 76 | 1010.1 |
| 20260504025103 | 37 | 292 | 0.0 | 0.0 | 0.00 | 0.03 | 0.03 | 75 | 1010.1 |
| 20260504023105 | 38 | 292 | 0.0 | 0.0 | 0.00 | 0.03 | 0.03 | 70 | 1010.5 |
| 20260504022105 | 38 | 292 | 0.0 | 0.0 | 0.00 | 0.03 | 0.03 | 70 | 1010.5 |
| 20260504021105 | 38 | 292 | 0.0 | 0.0 | 0.00 | 0.03 | 0.03 | 67 | 1010.5 |
| 20260504020105 | 39 | 292 | 0.0 | 0.0 | 0.00 | 0.03 | 0.03 | 64 | 1010.5 |
| 20260504015105 | 40 | 292 | 0.0 | 0.0 | 0.00 | 0.03 | 0.03 | 61 | 1010.5 |